User: anonymous   Login
Location: Pine Mountain Observatory
(43.7910°N, 120.9377°W)
Time: 00:13:06
(UTC-07:00)
Language:

Meteor 2-19 Rocket - Orbit

View from above orbital plane
View from above orbital plane
View from above satellite
View from above satellite

Ground track
Ground track

The orbit data is extracted from the following two-line orbital elements,

1 20671U 90057B   16146.12047235  .00000014  00000-0 -32189-6 0  9994
2 20671  82.5454 320.5757 0014517 331.6884 165.9797 13.84601163309364
Epoch (UTC): 25 May 2016 02:53:28
Eccentricity: 0.0014517
inclination: 82.5454°
perigee height: 937 km
apogee height: 958 km
right ascension of ascending node: 320.5757°
argument of perigee: 331.6884°
revolutions per day: 13.84601163
mean anomaly at epoch: 165.9797°
orbit number at epoch: 30936

The dashed part of the orbit path shows where the satellite is in the earth's shadow,  

DLR